Stanley, ID

5:15 PM MDT on March 23, 2017 (GMT -0600)
Stanley

Weather History for KSNT - October, 2011

Change the Weather History Date:

Saturday, October 1, 2011

  Actual Average Record
Temperature  
Mean Temperature 53 °F 44 °F  
Max Temperature 73 °F 61 °F 83 °F (2010)
Min Temperature 32 °F 26 °F 14 °F (1985)
Degree Days  
Heating Degree Days 12 21  
Month to date heating degree days 12 21  
Since 1 July heating degree days 935 1062  
Cooling Degree Days 0 0  
Month to date cooling degree days 0 0  
Year to date cooling degree days 3 3  
Growing Degree Days 2 (Base 50)    
Moisture  
Dew Point 33 °F    
Average Humidity 52    
Maximum Humidity 78    
Minimum Humidity 25    
Precipitation  
Precipitation 0.00 in 0.02 in 0.30 in (2000)
Month to date precipitation 0.00 0.02  
Year to date precipitation 13.26 12.23  
Sea Level Pressure  
Sea Level Pressure 29.91 in    
Wind  
Wind Speed 5 mph (SSE)    
Max Wind Speed 20 mph    
Max Gust Speed 29 mph    
T = Trace of Precipitation, MM = Missing Value Source: NWS Daily Summary

Daily Weather History Graph

Daily Weather History Graph

Search for Another Location

Airport or City:

Trip Planner

Search our weather history database for the weather conditions in past years. The results will help you decide how hot, cold, wet, or windy it might be!

Date:

Astronomy

Oct. 01, 2011 Rise Set
Actual Time 7:37 AM MDT 7:20 PM MDT
Civil Twilight 7:08 AM MDT 7:49 PM MDT
Nautical Twilight 6:34 AM MDT 8:23 PM MDT
Astronomical Twilight 6:00 AM MDT 8:57 PM MDT
Moon 1:00 PM MDT (10/1) 10:09 PM MDT (10/1)
Length of Visible Light 12h 41m
Length of Day
11h 43m
Waxing Crescent, 25% of the Moon is Illuminated
Oct 1
Waxing Crescent
Oct 3
First Quarter
Oct 11
Full
Oct 19
Last Quarter
Oct 26
New

Hourly Weather History & Observations

Time (MDT) Temp. Windchill Dew Point Humidity Pressure Visibility Wind Dir Wind Speed Gust Speed Precip Events Conditions
12:51 AM 42.1 °F - 26.1 °F 53% 29.93 in - Calm Calm - N/A   Unknown
1:51 AM 39.9 °F - 27.0 °F 60% 29.91 in - Calm Calm - N/A   Unknown
2:51 AM 37.9 °F - 26.1 °F 62% 29.88 in - Calm Calm - N/A   Unknown
3:51 AM 37.9 °F - 27.0 °F 65% 29.88 in - Calm Calm - N/A   Unknown
4:51 AM 36.0 °F 33.3 °F 26.1 °F 67% 29.90 in - SSW 3.5 mph - N/A   Unknown
5:51 AM 36.0 °F - 27.0 °F 70% 29.91 in - Calm Calm - N/A   Unknown
6:51 AM 33.1 °F 30.0 °F 26.1 °F 75% 29.95 in - Variable 3.5 mph - N/A   Unknown
7:51 AM 32.0 °F - 26.1 °F 79% 30.01 in - Calm Calm - N/A   Unknown
8:51 AM 39.0 °F - 28.9 °F 67% 29.99 in - Calm Calm - N/A   Unknown
9:51 AM 45.0 °F - 28.9 °F 53% 29.95 in - Calm Calm - N/A   Unknown
10:51 AM 55.9 °F - 30.9 °F 39% 29.91 in - Calm Calm - N/A   Unknown
11:51 AM 72.0 °F - 33.1 °F 24% 29.84 in - SSE 13.8 mph 27.6 mph N/A   Unknown
12:51 PM 70.0 °F - 34.0 °F 27% 29.88 in - South 13.8 mph 24.2 mph N/A   Unknown
1:51 PM 71.1 °F - 33.1 °F 25% 29.86 in - SSW 8.1 mph - N/A   Unknown
2:51 PM 72.0 °F - 34.0 °F 25% 29.86 in - South 8.1 mph - N/A   Unknown
3:51 PM 70.0 °F - 33.1 °F 26% 29.86 in - SW 9.2 mph - N/A   Unknown
4:51 PM 68.0 °F - 35.1 °F 30% 29.88 in - SSE 11.5 mph - N/A   Unknown
5:51 PM 62.1 °F - 41.0 °F 46% 29.92 in - SE 8.1 mph 28.8 mph N/A   Unknown
6:51 PM 59.0 °F - 43.0 °F 55% 29.96 in - ESE 15.0 mph 21.9 mph N/A   Unknown
7:51 PM 57.0 °F - 42.1 °F 57% 29.95 in - SSE 6.9 mph - N/A   Unknown
8:51 PM 55.0 °F - 42.1 °F 62% 29.94 in - South 6.9 mph - N/A   Unknown
9:51 PM 54.0 °F - 41.0 °F 62% 29.91 in - SE 8.1 mph - N/A   Unknown
10:51 PM 50.0 °F - 41.0 °F 71% 29.90 in - SE 4.6 mph - N/A   Unknown
11:51 PM 48.0 °F - 39.9 °F 74% 29.86 in - Calm Calm - N/A   Unknown